Wind_Speed
11 11 11 11 11 11 11 11 10 11 10 10 10 10 10 9 9 9 9 9 8 8 7 7 6 6 6 7 7 7 8 8 8 8 7 6 7 8 8 8 7 7 7 8 8 9 9 10 10 10 9 9 8 7 7 7 6 6 7 8 10 10 10 12 12 12 12 14 17 15 14 15 15 15 14 15 16 17 18 16 18 18 16 18 17 18 20 18
12 12 12 12 12 12 12 12 12 12 12 11 11 11 11 11 10 9 9 9 9 9 9 8 8 8 8 8 8 8 8 8 8 9 7 6 7 8 8 9 8 8 8 8 8 9 9 10 10 10 10 10 9 9 9 8 8 8 7 8 10 10 12 14 14 14 15 14 16 15 14 14 16 16 14 15 16 17 19 17 17 17 16 18 19 20 22 19
13 13 13 13 13 13 13 13 13 12 12 12 12 11 11 11 11 11 10 10 10 10 10 10 10 9 9 9 9 9 10 10 10 9 8 7 9 9 9 10 10 9 9 9 9 9 10 10 11 11 11 11 11 11 11 10 10 9 9 10 11 13 14 15 14 14 14 14 15 15 15 14 15 17 16 15 17 18 17 15 17 16 14 19 21 21 22 20
14 14 14 14 13 14 14 14 13 13 13 13 12 12 12 11 11 11 11 10 10 10 10 11 11 10 10 10 11 11 11 12 11 9 8 9 10 10 10 10 10 10 11 11 11 10 10 11 11 11 12 13 12 13 13 12 12 11 12 11 12 15 16 15 15 14 15 14 15 15 16 16 15 18 17 16 18 17 16 14 16 16 15 21 23 21 22 21
15 15 15 15 15 15 15 15 15 14 14 14 13 13 12 12 11 12 12 12 11 11 11 11 11 11 11 11 11 12 12 11 10 8 9 11 12 11 11 11 11 12 12 12 12 12 12 12 13 13 13 14 14 15 15 14 15 15 15 14 15 16 16 16 16 15 16 15 16 16 17 17 16 18 17 18 17 13 13 14 14 16 18 22 22 19 22 22
16 16 16 16 16 16 16 16 16 16 15 15 14 14 13 13 12 12 12 13 12 12 12 12 12 12 12 12 12 12 12 10 11 11 11 13 13 12 12 12 13 13 13 13 13 13 14 14 14 14 15 15 15 16 16 17 17 17 17 17 17 16 16 17 17 17 17 17 17 17 18 18 18 19 19 19 15 9 13 16 15 18 19 22 22 19 21 21
18 17 17 17 17 17 17 17 17 17 17 16 16 15 15 14 14 14 13 14 13 13 13 13 13 12 12 13 13 13 13 12 14 15 14 14 13 13 13 13 13 13 13 13 14 14 14 15 15 16 16 16 17 17 17 18 19 19 19 19 18 17 18 18 18 19 19 19 19 20 20 20 21 21 22 19 13 10 16 17 16 18 19 20 21 19 20 21
19 19 19 18 18 18 18 18 18 18 18 18 17 17 16 16 16 15 15 15 15 15 15 14 14 14 14 14 14 15 14 12 14 14 14 14 14 13 13 13 13 12 13 13 14 14 15 15 16 16 16 16 17 19 20 20 21 20 20 21 20 19 19 19 20 20 20 20 20 22 21 21 23 24 24 19 13 14 18 18 17 17 18 20 20 20 20 21
20 20 20 20 20 19 19 19 19 19 19 19 19 19 18 18 18 17 17 17 16 16 16 16 16 15 16 15 16 17 14 13 14 14 13 14 14 14 13 13 13 13 13 13 13 14 15 16 16 16 17 18 19 21 21 20 20 21 23 23 23 22 21 21 21 20 21 21 22 23 23 21 23 25 24 17 13 15 19 19 18 18 20 21 21 22 22 22
22 22 21 21 21 21 21 21 21 20 20 20 20 20 20 20 19 19 19 19 19 18 18 18 18 17 17 17 18 18 15 14 15 14 14 14 14 14 14 14 14 14 14 13 13 14 14 15 16 17 18 20 20 20 21 21 22 24 25 25 24 24 25 24 24 22 22 22 22 23 24 23 22 26 22 13 12 17 19 21 20 22 23 23 23 24 24 25
23 23 23 23 22 23 22 22 22 22 22 22 22 22 22 21 21 21 21 21 21 20 20 20 20 20 19 20 21 19 17 17 17 16 15 15 15 16 15 16 16 16 15 15 14 14 15 16 17 17 19 20 19 20 23 23 24 24 24 25 26 27 28 27 25 24 23 22 20 20 24 26 24 26 19 13 16 19 21 23 23 24 24 25 26 26 27 27
23 23 24 24 24 24 24 24 23 23 23 23 23 24 24 23 23 23 23 23 23 22 23 22 22 22 22 23 22 20 19 19 18 17 16 16 17 17 18 18 18 18 17 16 16 15 15 16 17 18 19 20 20 22 24 23 24 25 26 27 28 30 31 29 26 25 24 22 19 18 25 30 27 25 19 16 21 22 24 25 24 25 25 27 28 28 30 30
23 24 24 24 25 25 25 25 25 25 24 24 24 25 25 25 25 25 25 25 25 25 25 24 25 25 26 26 23 21 21 20 20 19 18 19 19 19 20 20 20 20 19 19 18 17 17 18 18 20 21 22 23 24 25 26 27 27 28 30 30 31 32 30 27 23 22 21 21 19 25 33 28 25 25 21 21 22 25 26 25 26 27 28 30 31 32 32
25 25 25 25 25 25 26 26 26 26 26 25 25 26 27 27 27 27 27 27 27 27 27 26 27 27 28 28 25 23 23 21 21 20 20 21 21 22 22 23 22 21 21 21 20 19 20 20 20 22 23 23 24 25 26 28 30 28 28 31 31 28 28 28 26 23 23 24 24 20 26 35 31 27 28 25 21 22 26 28 28 29 30 31 31 32 33 32
27 27 26 26 26 26 26 26 27 28 27 26 26 26 28 28 29 29 28 28 28 28 28 28 29 29 31 30 27 26 26 24 23 22 23 23 23 24 24 24 23 23 22 22 21 21 22 22 22 25 26 25 25 27 27 27 29 29 27 28 26 23 23 25 27 27 26 26 24 22 26 35 35 30 31 30 26 25 28 30 31 30 32 32 32 32 33 33
29 29 28 28 27 27 27 27 28 28 28 26 26 27 27 28 29 29 29 29 29 29 30 30 30 30 32 31 28 26 25 24 23 24 24 24 25 26 25 24 24 24 24 23 23 24 24 24 25 26 28 28 27 27 26 24 25 25 26 27 24 22 21 21 26 28 27 27 26 26 29 35 36 33 34 36 33 29 30 32 31 30 32 34 33 32 33 34
31 31 31 30 29 29 29 29 29 29 28 27 27 27 28 29 29 30 30 29 30 30 30 31 31 32 33 31 29 27 25 24 24 25 25 25 26 26 26 26 26 26 25 25 26 27 26 26 27 27 29 29 29 28 21 20 23 21 22 26 24 22 20 21 26 28 28 29 28 30 35 38 36 34 35 38 37 35 34 34 32 30 31 35 35 32 33 34
34 33 32 31 31 30 31 31 31 30 29 28 28 28 29 30 30 31 31 30 31 31 31 31 31 32 31 29 27 26 25 25 27 28 28 29 28 27 28 28 28 27 27 28 29 29 27 28 29 28 30 32 32 30 25 25 28 23 20 23 24 22 23 23 23 26 30 31 31 33 38 41 39 36 36 37 38 38 38 37 34 32 31 35 37 35 33 33
36 35 34 34 32 32 32 33 32 31 31 30 30 30 30 31 32 33 33 33 33 32 31 31 31 29 28 27 25 24 24 24 24 25 26 26 25 26 27 28 29 29 30 31 31 31 30 30 30 31 34 35 35 34 34 34 32 28 27 29 30 29 32 32 27 30 34 34 37 38 40 43 42 40 39 38 38 41 42 40 37 35 35 34 34 32 28 28
37 37 36 36 35 34 34 34 33 32 32 32 31 32 32 33 34 35 35 35 34 33 33 33 34 32 31 31 29 28 29 28 27 27 27 27 27 29 30 31 32 32 33 33 33 34 33 31 33 36 37 36 35 34 36 36 33 33 35 35 35 35 39 38 33 36 38 37 39 41 42 44 45 45 43 40 40 41 41 41 40 37 33 30 28 26 25 25
36 36 37 37 36 36 36 36 35 33 33 33 32 33 33 34 35 36 37 38 36 35 35 35 36 36 35 34 32 31 31 32 33 33 33 33 34 36 36 36 36 37 36 35 35 36 35 34 38 39 38 36 36 35 36 37 36 38 39 37 35 36 40 38 34 38 40 38 40 40 41 45 48 48 46 44 44 43 41 40 38 32 29 30 28 25 24 25
34 35 36 36 36 37 37 37 37 36 35 35 34 34 35 34 36 37 39 41 41 39 38 37 37 38 36 34 34 32 33 35 36 36 34 35 37 37 39 39 38 40 39 37 39 38 37 40 42 39 38 38 37 36 36 36 36 37 38 36 34 36 38 36 34 38 39 38 40 40 43 49 51 50 49 48 46 43 39 34 30 30 31 30 26 25 26 27
33 33 33 34 35 36 37 37 37 36 36 36 36 37 37 36 37 38 39 44 46 43 40 40 40 39 37 36 34 33 36 37 38 38 35 35 39 37 39 41 40 40 41 41 43 41 40 42 43 40 39 40 37 37 35 35 37 36 35 34 34 36 34 30 32 36 39 40 41 44 50 55 55 53 52 47 44 39 30 29 31 32 31 25 23 27 28 27
34 33 32 33 33 34 36 36 36 35 35 36 37 37 38 38 38 39 41 45 49 48 44 41 41 40 38 37 35 34 38 39 40 41 36 37 40 39 40 42 40 42 44 44 44 46 45 45 45 43 43 42 41 42 41 40 41 39 37 36 36 37 34 31 34 38 42 43 44 46 46 51 54 51 49 44 39 33 26 30 35 32 27 24 25 26 26 27
35 34 34 33 33 33 34 35 35 34 35 35 35 36 37 37 38 39 40 44 49 51 48 45 44 42 39 37 36 36 39 41 42 41 39 40 42 42 43 42 41 44 45 44 44 47 48 47 47 46 45 45 45 45 43 42 42 37 36 39 38 37 34 34 36 40 39 34 35 32 23 31 39 31 35 41 37 34 34 37 38 32 24 22 25 26 27 28
36 36 36 35 35 34 34 35 34 34 34 34 33 34 35 35 36 36 38 41 46 49 48 45 42 40 39 38 37 36 39 44 43 41 43 43 43 44 43 43 44 44 43 43 42 44 46 47 45 44 43 43 43 44 41 42 42 35 34 38 36 35 35 34 36 34 28 22 24 20 11 25 38 25 24 35 38 41 43 41 37 30 20 18 24 28 25 21
35 35 36 36 36 36 37 36 34 34 34 33 32 33 33 33 33 32 32 31 31 33 33 31 30 32 34 31 29 30 34 38 38 38 41 41 42 43 43 45 46 44 44 42 38 40 44 43 40 40 39 38 39 40 36 36 38 34 33 35 33 33 35 34 33 30 29 31 32 30 22 26 42 39 30 35 41 43 42 35 27 24 23 21 22 23 17 14
34 34 34 34 35 36 38 37 37 36 35 33 33 33 32 31 31 29 22 13 12 14 13 13 14 17 18 17 18 23 28 31 31 29 29 29 31 34 37 40 43 44 44 41 40 42 43 41 39 39 37 35 37 37 33 31 33 35 34 33 32 33 34 33 31 28 28 30 25 23 19 16 35 47 34 32 35 31 28 21 17 24 29 23 17 16 15 17
33 33 33 33 33 35 35 36 38 37 36 36 34 33 33 31 30 24 15 10 10 12 11 12 14 12 12 15 18 22 25 27 27 25 23 23 26 29 31 32 35 40 41 41 44 44 41 40 40 40 38 39 39 36 33 31 32 35 34 32 31 31 32 31 29 25 22 22 20 21 16 11 29 44 27 17 18 17 15 13 19 29 29 25 20 14 18 23
34 34 33 33 33 33 34 34 35 36 36 36 35 35 33 31 27 18 13 14 12 11 12 14 18 18 18 22 23 24 26 26 27 27 25 27 30 32 32 31 31 35 37 38 40 40 39 40 40 39 38 38 38 35 35 35 34 36 35 33 30 29 30 28 26 22 16 16 24 28 26 18 19 22 13 16 16 13 12 14 26 29 28 32 30 19 20 25
36 36 34 34 32 33 34 34 33 34 33 33 33 33 31 30 25 15 13 20 20 20 21 18 19 21 23 26 25 26 28 29 31 31 32 34 34 35 35 31 30 31 34 38 39 37 37 39 39 38 37 37 38 37 38 38 38 36 34 30 24 19 19 16 14 12 8 10 16 19 21 22 19 10 6 11 9 10 14 19 24 25 33 40 37 29 26 23
37 37 37 36 33 33 34 33 34 32 31 32 30 29 28 22 23 29 27 23 16 16 24 22 21 23 23 25 28 28 30 32 33 33 34 35 36 39 37 34 33 29 27 32 34 35 38 40 38 36 37 37 37 38 39 40 40 39 35 26 14 7 7 7 6 6 9 15 19 14 12 20 33 32 23 18 18 19 21 20 19 29 42 40 36 33 26 21
38 39 40 39 36 34 34 34 34 32 32 31 26 28 24 14 23 42 42 33 20 15 20 19 17 20 22 27 30 28 29 32 32 30 32 34 37 41 39 37 36 31 27 26 24 23 28 33 35 36 36 36 38 39 40 41 40 40 38 28 16 7 4 7 7 7 12 15 19 18 13 15 27 33 30 30 34 31 22 20 29 42 43 35 34 30 24 21
40 42 43 43 40 37 36 34 34 33 32 30 27 25 22 21 35 42 37 40 38 31 29 24 19 19 22 29 30 27 28 30 30 29 31 34 38 42 42 40 38 37 37 34 28 22 18 25 33 34 32 34 35 35 35 40 42 41 37 29 22 16 9 7 7 7 6 10 17 14 11 14 19 28 36 35 31 26 24 34 42 42 38 33 32 27 23 21
43 44 45 47 46 42 39 37 36 36 34 32 29 26 30 40 51 44 36 40 39 37 37 32 27 25 26 31 30 26 27 29 31 31 33 37 40 42 44 43 39 37 37 33 31 28 25 34 42 37 35 39 37 34 34 35 36 36 31 25 26 28 24 18 18 18 11 12 18 15 19 36 42 47 53 44 36 34 33 38 38 36 36 31 26 25 23 20
45 46 46 50 50 44 41 41 40 37 36 33 30 35 46 55 52 44 41 38 35 37 36 32 32 32 31 33 34 31 29 31 34 34 35 40 43 45 47 46 42 39 39 36 32 29 25 33 42 37 35 39 36 36 36 33 29 26 24 27 32 36 31 21 19 24 16 10 19 20 25 43 45 42 43 36 33 34 30 31 33 32 29 23 23 25 22 21
45 47 49 53 54 48 45 45 41 37 35 32 35 45 58 62 56 51 47 41 36 32 28 29 33 34 31 31 34 36 33 34 38 38 39 40 42 47 48 47 45 41 41 39 38 37 31 33 43 39 32 34 34 32 34 37 34 28 25 28 30 28 26 20 10 10 9 7 20 29 30 36 32 22 23 22 20 23 26 26 24 23 23 24 26 23 20 23
47 47 49 53 54 51 48 48 46 42 36 33 40 54 62 62 61 56 53 49 40 31 29 32 33 32 33 30 28 30 29 34 39 39 41 41 41 46 44 42 44 41 38 36 38 42 37 32 41 44 37 36 37 35 34 37 37 35 35 33 25 15 14 18 11 5 9 5 12 30 36 39 39 30 29 29 22 20 21 17 18 27 32 31 30 26 25 27
50 49 49 50 51 48 47 49 48 44 39 39 47 58 62 63 62 56 54 55 48 41 40 40 35 31 34 33 28 27 28 34 39 39 40 41 41 45 43 39 38 35 33 33 34 40 40 30 30 40 37 30 33 37 38 39 38 38 39 36 32 22 12 16 18 14 11 6 10 22 27 35 39 30 29 28 19 15 13 15 26 37 40 39 38 32 28 32
52 47 45 45 45 44 45 47 48 46 46 48 53 58 60 60 59 56 56 56 53 49 48 47 42 37 39 40 35 34 32 32 37 39 41 43 42 43 42 39 37 35 32 32 31 35 40 35 30 37 36 30 36 42 41 43 42 40 42 40 38 34 23 17 21 26 18 6 8 10 14 33 34 17 17 18 13 15 17 26 43 48 49 51 45 36 35 40
48 44 44 44 41 41 43 45 47 49 51 53 55 58 59 58 57 56 55 53 50 50 50 49 47 43 43 41 36 36 36 36 39 40 42 47 46 41 40 39 37 35 32 33 35 34 37 38 36 38 41 42 50 52 48 48 45 42 44 44 43 43 35 19 13 28 29 17 16 12 12 40 45 23 21 22 18 24 28 40 56 58 59 58 49 45 45 45
42 41 44 45 40 39 42 45 47 49 53 54 54 57 58 57 57 56 54 53 50 48 48 48 49 48 46 41 37 36 36 39 44 45 45 49 49 46 45 42 40 37 34 34 36 36 37 38 38 40 46 48 49 49 50 49 46 44 44 44 46 45 44 32 14 19 27 26 34 28 16 43 62 45 37 35 34 40 42 50 61 63 63 60 53 52 50 48
48 48 48 50 47 42 40 39 41 48 54 54 54 56 57 57 58 56 55 54 53 50 48 48 49 49 49 48 45 41 39 41 46 48 49 50 52 53 50 49 47 43 40 38 38 37 35 35 36 37 41 45 48 51 54 51 42 39 42 46 47 46 50 48 35 29 22 20 31 23 11 41 72 63 53 54 56 57 56 60 65 63 60 56 54 57 57 57
52 53 53 54 54 51 47 44 44 49 51 51 53 55 56 58 59 58 58 57 54 52 50 51 51 50 49 48 47 47 44 41 42 45 45 46 51 51 49 50 49 45 44 44 42 39 35 34 33 25 20 25 33 39 44 47 42 42 47 48 48 49 48 45 43 36 25 31 42 21 7 41 73 67 60 64 66 66 65 66 67 64 61 59 60 63 64 64
50 51 51 50 50 51 53 51 49 52 51 51 54 55 55 58 59 58 59 59 56 53 50 49 49 49 48 46 46 48 46 42 42 43 40 41 46 48 47 48 48 47 48 46 44 43 40 38 36 26 14 11 17 25 31 35 37 42 50 50 50 52 49 45 43 31 25 44 54 32 24 53 74 69 66 70 69 68 67 67 69 69 67 66 66 68 70 71
49 49 49 48 45 45 49 50 47 49 50 50 53 53 53 57 57 55 57 58 58 58 55 51 49 48 47 45 44 46 47 46 46 45 43 43 44 46 47 46 44 45 45 44 44 45 44 44 44 42 38 33 37 46 46 37 32 34 40 43 44 46 48 49 44 38 40 42 39 40 51 63 67 67 71 73 71 69 68 67 69 71 72 72 71 70 72 74
48 47 48 49 45 41 43 47 47 49 50 50 53 53 53 56 55 53 55 57 57 58 57 55 53 50 48 47 46 47 49 48 47 47 48 49 50 49 48 47 43 41 41 40 41 43 44 45 46 49 52 52 52 55 53 48 44 42 40 39 40 39 41 46 47 52 54 34 23 45 62 58 57 63 68 73 76 74 72 71 72 74 74 73 71 69 71 73
48 46 46 46 45 44 46 50 52 53 51 51 54 54 52 55 56 55 56 57 56 55 53 53 54 54 53 52 50 50 49 46 45 46 48 51 53 52 52 52 49 48 46 41 39 41 42 43 46 48 50 51 51 51 52 54 54 50 43 40 40 37 38 48 56 60 54 39 38 56 63 59 60 62 65 74 78 75 75 75 73 71 69 68 69 70 70 69
50 48 45 41 41 42 44 48 53 56 55 52 54 56 54 55 57 57 57 55 56 56 54 55 58 58 57 55 52 53 50 44 45 49 52 52 50 48 50 49 49 51 50 47 45 43 42 43 46 48 48 49 50 51 53 56 56 55 51 46 41 41 46 54 56 54 53 55 60 65 64 63 66 68 72 76 77 76 76 75 72 69 66 66 68 68 66 63
52 50 47 46 45 42 39 40 43 50 55 55 57 57 56 57 60 59 58 56 56 57 55 57 58 56 55 54 53 55 52 47 49 53 52 51 49 46 46 45 46 47 46 47 46 44 44 45 45 45 45 46 51 55 56 58 57 56 55 52 49 52 59 59 54 52 54 58 64 64 60 63 69 73 74 74 76 77 75 71 68 63 59 57 60 64 63 59
53 50 46 47 51 51 48 45 41 42 47 52 58 59 58 60 59 57 58 58 56 55 55 56 57 55 54 54 54 56 53 50 53 54 51 52 52 49 47 46 47 47 47 47 45 44 44 44 44 43 38 42 52 56 57 60 58 54 53 55 59 64 64 59 57 59 59 59 60 57 56 63 68 67 67 70 73 74 70 64 57 50 45 47 55 60 57 52
50 50 47 46 50 53 54 54 49 44 42 44 48 53 56 59 58 57 60 61 58 57 57 57 58 56 54 55 57 58 58 57 57 55 52 52 54 54 52 51 50 50 50 50 48 49 46 43 44 42 35 40 50 53 54 49 38 36 47 57 63 66 64 62 66 67 64 61 60 58 62 69 67 64 68 70 67 66 61 51 45 45 46 52 58 57 50 47
Wind_Direction
273 276 280 285 289 294 297 300 303 304 307 308 311 314 316 317 317 315 315 314 314 314 313 311 308 308 309 310 314 317 320 324 327 333 332 333 340 342 344 347 353 358 359 360 360 1 2 7 11 9 8 3 358 351 340 328 314 302 288 270 263 263 264 273 275 272 275 274 283 289 284 284 284 281 278 273 272 272 278 278 277 281 281 280 280 277 274 274
271 273 276 279 282 285 288 291 293 296 298 300 302 304 306 308 308 307 307 307 308 308 306 304 300 297 296 295 296 297 300 301 304 314 309 310 324 324 323 323 326 331 333 337 339 342 343 348 351 352 355 351 349 345 340 332 320 314 299 281 273 269 272 282 285 282 284 283 285 290 288 283 282 287 282 277 281 279 282 285 282 284 286 281 277 274 275 276
270 272 274 275 277 279 280 283 285 287 290 292 294 295 297 298 299 300 298 299 301 302 302 300 298 295 292 289 288 288 289 288 292 298 287 289 308 309 308 309 309 311 314 316 319 324 325 329 333 335 337 336 337 335 334 328 319 312 300 291 279 280 290 294 295 294 294 293 291 293 292 287 284 288 289 285 285 287 292 295 287 286 283 277 274 273 278 279
266 269 271 273 275 276 277 278 279 281 282 285 287 287 288 288 289 291 291 291 292 295 296 296 296 295 292 289 286 285 285 287 289 287 274 281 298 298 297 299 300 300 302 304 304 308 310 312 314 318 321 323 323 322 323 322 317 309 302 296 285 289 296 294 297 300 300 299 297 297 296 293 289 288 293 289 286 296 305 297 285 284 278 273 276 276 278 279
262 263 266 269 271 273 275 276 278 279 279 280 281 282 282 281 280 281 283 283 283 286 288 289 291 291 291 288 286 284 285 290 290 281 274 282 291 291 291 292 293 295 294 294 296 298 299 300 302 305 308 310 312 311 312 313 310 306 304 301 297 296 291 289 296 297 298 299 297 299 298 297 295 293 296 291 294 311 303 287 279 277 273 274 282 279 276 280
260 261 262 264 266 268 270 272 275 276 277 278 279 280 280 279 277 276 277 277 278 278 280 283 284 285 286 285 284 281 278 279 284 284 281 284 286 285 286 287 288 289 288 288 288 290 292 294 296 298 301 303 303 302 304 306 304 302 301 300 301 298 290 290 293 292 294 293 293 294 294 295 295 296 295 292 306 320 285 277 272 272 272 278 288 285 279 283
261 262 261 262 263 265 267 269 270 272 274 275 276 277 277 277 276 275 275 275 276 276 276 277 278 279 279 279 279 277 275 274 277 280 281 281 281 282 282 283 284 283 283 283 281 282 285 288 291 294 297 298 297 297 298 300 299 296 294 295 297 295 292 292 292 293 292 289 289 288 287 291 292 292 290 292 310 302 279 277 273 276 280 282 290 290 286 285
262 262 262 263 263 263 265 266 268 270 271 272 273 274 274 275 274 274 273 273 273 274 275 275 275 275 274 275 275 274 276 276 275 277 277 277 277 278 278 279 280 280 279 277 275 277 278 282 286 289 291 290 289 292 296 298 297 294 291 292 293 291 289 291 293 294 292 290 288 285 285 287 288 288 288 295 306 290 280 283 280 280 284 285 289 289 286 284
262 263 263 263 263 263 263 264 266 267 269 271 272 272 273 273 273 273 272 271 270 270 272 272 272 272 272 272 272 272 277 278 275 275 274 273 274 274 273 275 276 276 275 271 270 270 271 276 279 282 284 284 286 289 293 293 291 293 294 294 292 289 286 287 290 292 291 291 288 286 286 284 285 286 291 305 304 284 279 283 285 282 283 286 286 285 285 284
260 262 262 263 263 263 263 263 264 265 266 268 269 270 270 271 272 272 272 271 270 269 269 270 270 270 270 269 269 271 276 276 274 274 272 270 270 269 269 271 272 274 271 266 263 263 268 272 275 278 278 281 286 287 289 288 287 291 292 291 291 289 286 286 287 288 289 289 286 287 287 284 282 282 294 319 299 279 280 282 284 285 287 288 285 283 283 283
261 261 261 262 263 263 263 262 262 263 264 266 267 268 268 268 269 270 270 270 270 270 269 269 269 269 269 267 267 271 273 272 271 272 269 267 267 267 268 268 270 271 268 264 259 260 267 270 274 276 276 282 286 286 288 288 288 290 288 289 291 289 287 286 285 285 286 285 284 286 285 282 277 279 297 318 293 282 282 282 285 287 289 288 284 282 282 283
261 261 261 261 262 263 263 263 263 263 263 263 265 266 267 267 267 268 268 269 269 269 269 269 269 269 269 266 265 269 271 269 270 269 265 265 266 266 266 268 271 269 266 263 259 263 267 270 274 274 276 280 283 285 288 289 290 289 288 290 292 290 289 288 286 284 281 280 284 287 285 283 279 284 299 301 291 290 286 284 285 287 287 285 283 282 282 283
262 262 261 261 262 262 263 264 264 263 263 263 264 265 266 266 267 267 267 268 269 270 270 270 269 269 269 267 266 267 267 267 268 267 266 265 264 265 265 268 269 267 265 263 262 267 270 273 276 277 279 279 280 284 287 291 290 288 289 291 291 289 289 291 290 284 275 277 286 285 281 286 286 290 297 295 292 292 288 287 287 285 285 283 283 282 283 283
262 262 263 262 263 263 263 264 264 264 264 263 264 265 266 267 268 268 268 269 269 270 271 271 271 271 269 267 266 266 266 266 267 266 266 264 264 264 265 268 268 265 265 264 264 269 274 277 278 281 282 281 284 287 288 291 291 290 289 289 290 285 283 288 288 283 276 279 286 279 276 285 291 290 293 296 297 292 287 288 288 287 287 284 283 284 284 284
263 262 263 262 263 263 264 265 265 265 265 265 266 267 268 269 269 270 270 270 270 271 272 272 272 273 272 269 267 267 267 267 267 267 265 264 264 265 267 268 266 266 266 263 265 271 276 277 279 283 284 285 287 286 288 291 292 293 287 286 289 281 278 283 282 282 279 279 281 275 273 284 292 291 290 295 298 293 288 287 288 290 289 285 282 282 283 284
264 264 264 263 263 263 263 263 264 265 265 267 268 269 270 270 271 271 271 271 271 271 272 273 273 273 273 271 269 268 269 269 268 266 264 264 264 265 265 265 266 267 265 263 267 273 275 276 279 281 283 286 285 285 289 288 284 285 282 285 286 276 273 276 279 282 280 278 279 275 275 281 287 290 292 296 297 294 290 289 291 292 290 287 285 283 283 284
266 266 266 266 265 264 263 262 262 263 265 266 267 269 270 271 272 272 272 272 272 272 272 273 273 273 273 272 272 271 270 269 266 264 263 263 263 263 262 264 267 266 263 265 269 272 274 276 278 279 281 282 281 280 278 274 275 277 278 284 288 281 272 270 275 279 280 280 280 280 280 281 285 288 290 293 295 296 294 292 293 293 291 289 289 288 286 285
267 267 267 267 267 267 266 264 263 263 264 265 266 266 268 270 271 271 271 271 272 272 272 273 273 273 273 272 273 273 271 268 264 262 262 262 262 261 261 263 264 263 265 268 269 272 274 275 275 276 278 276 277 276 267 272 284 285 281 280 284 284 275 272 273 277 280 280 281 282 281 284 288 288 288 290 294 296 295 296 296 296 295 292 292 292 290 285
267 267 268 268 268 268 268 267 266 265 265 264 265 266 267 268 268 268 269 269 270 271 272 273 271 269 270 271 271 271 272 270 266 261 258 258 260 260 261 261 261 263 267 269 269 272 272 272 272 271 271 271 277 282 279 285 289 284 281 277 276 279 276 276 275 275 280 279 282 284 283 287 289 287 289 290 292 294 295 298 300 301 300 296 294 293 291 287
267 268 268 268 268 268 268 269 269 268 267 266 266 267 268 269 269 269 268 267 266 267 268 269 270 269 269 270 271 271 270 268 265 261 256 256 260 263 263 262 264 264 265 269 271 272 270 269 268 269 272 275 280 282 283 286 285 282 283 279 277 277 277 281 278 278 282 279 282 288 287 287 287 287 290 290 290 291 293 298 300 302 302 299 297 296 295 291
266 267 269 269 269 269 268 269 269 269 269 269 269 268 268 269 271 272 271 269 266 265 263 265 268 269 268 270 271 271 271 269 265 262 260 261 263 265 264 263 265 265 265 269 270 270 269 266 266 271 276 278 276 275 278 282 282 282 281 277 275 275 278 281 279 281 286 282 284 290 287 285 287 288 289 289 289 289 292 297 298 300 303 302 301 299 296 293
266 267 268 269 270 270 269 270 269 269 269 270 270 270 270 269 270 272 274 273 270 266 264 264 265 266 267 268 269 270 269 268 266 264 264 265 264 264 265 264 264 265 266 267 268 269 266 265 269 274 276 276 275 277 278 279 280 278 276 272 270 274 278 280 281 286 288 285 288 291 287 286 287 287 288 289 289 291 294 294 295 301 303 302 302 301 297 295
266 266 267 268 269 269 270 270 270 270 269 269 269 270 271 271 272 273 274 275 273 269 267 266 265 266 266 266 267 267 267 267 267 266 265 264 264 263 263 264 263 265 266 264 266 265 262 267 273 274 274 275 277 277 276 277 277 273 271 269 270 275 277 277 282 286 286 287 289 290 289 287 287 287 288 289 290 293 293 292 299 303 303 303 300 300 299 298
266 266 267 268 269 269 270 270 270 270 270 270 270 270 271 272 273 275 276 277 276 272 269 268 267 266 266 267 267 265 265 266 265 265 265 262 263 262 261 263 263 263 263 263 265 264 264 269 271 271 273 274 275 275 276 277 275 272 271 271 272 277 277 275 279 281 284 288 289 292 293 289 289 291 291 290 291 293 289 292 302 305 302 302 300 299 299 298
267 267 267 267 268 269 270 270 270 271 271 271 271 272 273 274 275 277 279 280 279 276 273 271 270 270 268 266 265 264 264 264 263 265 266 262 261 261 261 261 261 261 263 264 265 265 266 268 269 270 272 273 273 274 276 276 273 270 271 272 273 276 276 274 276 280 285 288 289 295 300 291 289 290 289 289 291 291 292 297 303 304 299 298 302 301 297 296
268 268 267 268 268 268 269 270 271 271 271 271 272 273 274 276 278 279 282 284 280 278 277 275 272 271 269 266 265 264 262 262 264 263 262 260 259 260 260 260 260 260 262 264 264 263 265 267 269 271 271 271 272 273 274 274 272 266 266 271 275 278 278 274 276 279 279 279 279 278 286 292 288 277 271 281 288 291 296 301 303 304 301 300 307 304 296 293
269 269 268 267 267 267 267 268 270 270 270 271 272 273 274 276 279 282 286 286 278 277 279 275 269 267 269 269 266 257 253 259 263 260 260 260 260 260 259 259 261 262 262 261 259 261 265 269 271 271 271 271 271 272 274 272 269 263 265 273 275 278 278 276 276 274 273 278 276 270 267 278 282 277 270 278 287 291 295 299 301 307 311 310 312 306 289 279
270 270 270 269 268 267 266 267 268 268 270 271 270 271 273 274 278 281 286 282 267 272 275 263 256 258 258 262 261 252 252 258 259 259 262 262 262 261 259 259 259 260 262 258 254 259 266 269 271 271 270 270 270 271 273 270 266 265 270 274 274 276 275 274 276 275 279 284 278 266 256 255 274 279 282 285 284 287 292 293 299 312 314 312 313 298 276 282
272 272 271 271 270 269 268 267 266 267 268 269 269 270 271 273 276 276 268 255 256 265 259 241 239 237 235 246 256 258 258 258 255 256 260 261 263 262 260 260 256 254 259 258 256 260 265 268 269 269 268 269 270 270 268 266 265 268 272 274 273 274 273 274 276 277 282 279 264 251 232 228 276 280 273 259 265 272 276 285 303 313 314 312 311 286 268 292
272 272 272 272 271 271 270 269 268 267 267 267 267 267 268 269 269 261 245 245 252 265 256 236 235 238 242 247 250 253 255 255 256 257 259 260 264 263 260 260 256 255 259 260 261 265 267 266 265 265 267 268 268 267 265 263 265 269 272 273 275 276 275 276 274 276 281 269 261 259 250 241 270 283 246 226 258 257 241 285 307 309 311 313 312 288 273 297
272 272 272 272 272 272 271 270 269 268 267 266 265 264 264 264 258 238 236 251 256 263 256 241 238 242 246 250 248 247 247 248 252 256 260 261 261 259 256 256 255 256 258 259 263 268 267 265 264 265 267 266 266 265 263 264 265 267 269 269 274 277 276 273 263 257 253 259 268 271 264 243 232 255 259 248 255 197 221 290 304 302 309 311 308 294 287 299
270 271 271 269 270 272 271 271 270 269 267 264 263 260 255 253 245 236 240 254 262 261 252 246 246 242 239 243 242 242 242 244 247 252 257 260 260 259 257 257 256 254 255 260 265 268 266 266 266 267 266 264 263 262 262 264 264 263 262 257 257 261 260 247 214 212 232 253 267 264 250 237 237 250 257 250 253 243 255 284 289 297 307 306 302 296 291 295
269 269 269 267 267 267 267 269 268 266 264 260 257 253 241 229 244 243 242 245 247 248 250 249 249 242 234 233 234 237 240 242 245 246 250 254 257 259 258 256 254 251 253 260 265 265 266 269 265 262 263 263 261 259 260 264 264 263 257 244 230 225 254 256 237 247 245 248 264 258 241 248 254 261 260 258 268 270 269 280 289 298 304 302 299 295 289 289
271 269 268 266 265 263 264 266 265 263 260 254 249 241 224 228 249 249 245 247 249 251 254 255 252 248 240 235 234 235 237 242 244 243 245 249 251 255 257 256 253 253 254 255 256 255 259 268 265 262 265 265 263 262 262 263 263 264 260 247 237 232 233 254 257 264 277 288 286 265 239 256 264 273 278 277 277 273 271 283 292 298 301 301 297 290 289 289
270 268 268 267 264 263 265 264 261 259 254 248 243 228 221 237 248 249 248 250 251 251 252 254 253 251 247 243 240 237 237 242 245 241 243 247 250 255 258 258 256 254 252 248 252 256 254 262 267 266 265 266 266 265 263 259 256 258 254 239 238 242 237 242 259 273 300 314 283 251 248 267 274 279 281 280 277 271 273 283 292 298 301 298 291 290 292 288
270 267 267 267 265 264 263 261 257 253 249 244 232 224 234 246 251 250 251 252 250 250 250 250 252 249 248 248 246 241 236 239 244 244 246 250 253 255 256 258 258 255 252 250 253 258 253 261 270 269 266 267 266 266 264 256 248 247 242 234 242 249 241 236 259 273 282 293 274 259 262 274 281 285 280 274 272 269 271 284 293 299 299 290 288 293 288 283
272 269 268 268 268 266 265 265 261 254 249 238 226 234 247 253 254 252 253 253 250 249 246 246 251 249 246 247 248 246 239 239 245 246 248 251 254 255 254 257 259 256 256 257 257 259 257 261 269 269 266 265 264 265 262 253 242 236 238 244 250 251 240 233 252 280 267 265 273 271 271 277 280 280 279 273 261 260 274 289 293 296 296 293 295 295 282 281
269 270 270 268 268 268 268 268 265 258 250 234 232 245 251 253 254 253 251 250 250 251 249 246 248 249 249 247 249 251 243 239 244 246 247 251 255 259 258 257 260 260 262 262 256 257 257 259 267 267 264 263 263 259 253 248 242 240 246 248 244 235 217 216 213 247 257 239 275 277 278 277 271 265 273 274 260 259 275 283 289 296 299 300 300 295 283 283
265 267 267 266 268 269 268 266 261 254 245 234 237 248 252 253 254 252 251 252 252 252 252 249 246 246 250 250 248 254 250 243 245 247 249 251 254 261 262 259 261 264 266 261 254 256 254 252 263 265 262 262 259 250 242 244 242 239 242 241 237 234 212 205 209 221 243 237 265 282 284 278 272 267 269 272 267 264 261 271 291 298 299 300 300 293 283 286
262 263 264 267 270 270 267 264 257 248 243 242 245 251 255 256 255 253 254 255 254 253 252 252 249 246 251 254 252 252 251 247 248 249 251 254 256 260 263 261 262 265 266 261 257 256 248 242 250 259 261 258 253 251 251 254 252 242 237 236 235 232 222 222 230 229 230 235 259 272 278 273 274 269 257 261 274 269 259 278 292 296 297 298 297 290 285 290
258 261 263 266 269 270 264 254 246 244 244 247 252 255 255 256 258 258 258 259 258 256 254 254 252 250 252 254 252 251 249 249 252 251 252 255 256 257 261 264 265 265 263 257 254 252 244 240 243 248 253 256 258 264 267 266 264 257 250 248 247 242 232 228 238 235 230 226 241 240 262 270 271 271 266 264 271 272 269 278 287 292 294 294 292 289 289 290
258 261 264 263 264 269 262 249 244 245 246 249 255 257 256 257 260 261 261 261 260 258 256 255 253 253 253 251 250 252 251 252 254 253 253 255 257 259 263 267 268 266 264 259 258 258 253 246 241 242 250 258 264 269 269 267 263 256 252 251 251 248 238 228 223 237 233 229 241 243 249 265 266 268 271 270 272 276 276 279 285 290 292 291 289 289 291 290
263 264 266 265 264 265 262 255 249 246 248 255 259 259 259 258 258 259 260 261 260 258 256 256 256 256 256 255 253 252 253 254 255 254 255 258 262 264 266 268 268 266 264 261 258 257 249 237 234 241 250 256 260 262 263 264 258 247 246 247 244 242 240 238 237 241 240 227 238 241 233 259 265 267 268 271 275 277 279 282 287 290 290 290 290 290 292 293
269 269 270 270 269 267 260 255 252 250 254 261 262 261 261 258 257 259 261 261 260 259 258 259 260 260 259 259 257 254 253 253 254 256 258 261 265 268 269 269 268 264 262 260 257 254 245 233 230 238 249 252 256 258 257 256 252 247 250 252 248 245 243 241 239 241 246 241 241 241 229 256 264 269 271 275 279 280 283 286 289 290 289 289 290 292 293 294
270 271 272 272 272 270 265 262 261 261 263 265 266 267 265 261 260 263 263 262 261 260 259 259 259 260 260 260 257 256 255 252 255 260 259 261 266 269 269 267 266 266 265 263 260 256 251 244 235 230 230 232 239 244 245 248 251 250 251 252 250 247 242 239 237 234 240 245 243 242 249 256 262 270 274 277 279 280 284 287 287 288 289 290 291 292 292 293
266 266 267 268 267 265 267 269 265 260 262 264 263 264 263 262 266 269 266 262 262 263 261 257 256 257 257 256 255 256 256 254 255 258 259 261 263 265 267 267 266 266 265 262 258 253 251 249 243 238 237 235 239 247 251 255 259 255 255 255 251 249 247 242 236 231 237 245 243 242 250 256 260 267 273 276 277 279 280 281 283 286 287 289 290 291 292 293
261 260 261 263 262 255 255 261 259 255 259 259 254 256 260 263 266 268 264 262 264 265 262 259 259 257 257 259 258 257 259 259 257 256 259 261 261 261 263 264 265 265 264 262 257 250 244 245 246 246 246 245 247 253 257 260 261 260 263 264 259 257 253 241 235 240 243 244 245 250 254 257 259 265 271 275 277 279 280 280 282 284 286 287 289 289 290 293
258 257 258 261 261 255 250 254 258 257 256 252 249 250 255 257 258 260 262 264 265 262 259 258 261 262 265 267 264 259 260 261 259 259 260 262 265 265 262 261 263 263 262 260 256 249 243 243 248 250 251 252 253 255 258 259 261 261 262 264 262 264 259 247 246 250 247 243 250 256 259 261 263 267 271 274 277 279 279 281 282 284 286 288 289 289 290 293
257 256 257 256 257 257 255 257 261 260 256 253 249 248 251 254 256 259 263 262 260 259 258 257 262 267 269 269 264 257 255 256 261 266 267 267 270 269 264 265 266 264 261 259 256 253 248 247 250 251 253 255 253 253 255 256 259 261 259 259 261 263 262 258 258 259 255 253 257 260 262 264 267 270 271 273 276 277 278 280 282 284 286 287 288 289 291 293
257 256 254 251 250 252 253 254 254 254 254 251 247 247 251 254 256 260 261 257 253 256 257 257 263 268 268 269 266 259 260 266 270 272 273 270 268 268 266 267 268 266 262 259 257 254 251 251 252 252 255 256 253 252 253 252 255 259 260 261 262 261 260 260 261 262 259 258 261 262 262 263 268 272 274 276 278 278 279 282 283 284 286 287 288 289 291 294
257 254 252 251 251 250 250 252 252 252 252 249 246 247 248 249 254 258 260 257 253 254 258 261 267 270 268 266 265 264 269 274 274 276 278 275 271 270 267 266 267 267 263 263 263 258 253 251 251 252 253 254 254 254 254 255 257 258 259 260 258 255 255 256 258 259 258 260 264 262 259 263 271 279 282 282 281 280 282 284 284 286 288 290 290 291 292 294
259 256 251 249 252 251 250 251 251 252 253 251 251 254 252 253 258 259 258 259 257 257 261 264 267 267 265 262 264 269 274 277 277 279 281 278 274 270 266 265 268 267 265 267 268 263 258 254 250 249 247 251 255 256 256 258 258 252 250 253 253 252 254 255 255 257 259 260 261 261 262 269 279 283 281 280 281 280 281 283 285 288 292 292 292 293 292 293
Height
3195 3194 3194 3194 3194 3194 3194 3194 3194 3194 3193 3193 3193 3193 3192 3192 3191 3191 3190 3190 3189 3188 3188 3188 3187 3187 3187 3186 3186 3185 3184 3184 3183 3183 3182 3182 3181 3181 3180 3180 3179 3179 3179 3178 3178 3177 3177 3176 3176 3175 3175 3174 3174 3173 3173 3172 3172 3171 3170 3170 3170 3169 3169 3167 3166 3165 3164 3163 3161 3160 3160 3159 3158 3157 3157 3156 3156 3155 3154 3155 3154 3154 3154 3153 3153 3152 3151 3152
3194 3194 3194 3194 3193 3193 3193 3193 3193 3193 3192 3192 3192 3192 3191 3191 3191 3190 3190 3189 3188 3188 3187 3187 3187 3186 3186 3185 3185 3184 3184 3183 3183 3182 3182 3181 3181 3180 3180 3179 3179 3178 3178 3178 3177 3177 3176 3176 3175 3174 3174 3173 3173 3172 3172 3171 3171 3170 3169 3169 3168 3168 3166 3164 3164 3163 3161 3161 3159 3158 3158 3157 3156 3155 3155 3155 3154 3154 3152 3152 3152 3152 3152 3151 3150 3150 3149 3150
3193 3193 3193 3193 3193 3192 3192 3192 3192 3191 3191 3191 3191 3191 3190 3190 3190 3189 3189 3188 3188 3187 3187 3186 3186 3185 3185 3184 3184 3184 3183 3182 3182 3181 3181 3180 3180 3180 3179 3179 3178 3178 3177 3177 3177 3176 3176 3175 3174 3174 3173 3173 3172 3171 3171 3170 3170 3169 3168 3167 3167 3166 3164 3163 3162 3161 3160 3159 3158 3157 3156 3156 3155 3153 3153 3153 3152 3151 3150 3150 3150 3149 3150 3148 3147 3147 3147 3147
3191 3191 3191 3192 3192 3191 3191 3191 3190 3190 3190 3190 3189 3189 3189 3189 3188 3188 3188 3187 3187 3186 3186 3185 3185 3184 3184 3183 3183 3182 3182 3181 3181 3180 3180 3180 3179 3179 3178 3178 3177 3177 3176 3176 3176 3175 3175 3174 3174 3173 3172 3172 3171 3170 3170 3169 3168 3168 3167 3166 3165 3164 3162 3161 3160 3159 3158 3157 3156 3155 3154 3154 3153 3152 3151 3151 3150 3149 3148 3148 3147 3147 3148 3146 3144 3145 3145 3144
3190 3190 3190 3190 3190 3190 3190 3189 3189 3189 3189 3188 3188 3188 3188 3187 3187 3187 3186 3186 3186 3185 3185 3184 3184 3183 3183 3182 3182 3181 3181 3180 3179 3179 3179 3178 3178 3178 3177 3177 3176 3176 3175 3175 3174 3174 3174 3173 3173 3172 3171 3171 3170 3169 3168 3168 3167 3166 3165 3164 3163 3162 3161 3159 3158 3158 3156 3156 3155 3154 3153 3152 3151 3150 3150 3149 3148 3148 3147 3146 3146 3145 3145 3143 3142 3143 3142 3142
3188 3188 3188 3188 3188 3188 3188 3188 3188 3188 3187 3187 3187 3187 3186 3186 3186 3185 3185 3184 3184 3184 3183 3183 3182 3182 3181 3181 3180 3180 3180 3179 3178 3178 3178 3177 3177 3176 3176 3175 3175 3174 3174 3173 3173 3173 3172 3172 3171 3171 3170 3169 3169 3168 3167 3166 3165 3164 3163 3162 3161 3160 3159 3158 3157 3156 3155 3154 3153 3152 3151 3150 3149 3148 3148 3147 3146 3146 3145 3144 3144 3143 3143 3141 3140 3141 3141 3140
3187 3187 3187 3187 3187 3186 3186 3186 3186 3186 3186 3185 3185 3185 3185 3184 3184 3184 3183 3183 3183 3182 3182 3181 3181 3180 3180 3179 3179 3178 3178 3178 3177 3176 3176 3176 3175 3175 3175 3174 3174 3173 3173 3172 3172 3171 3171 3170 3170 3169 3168 3168 3167 3166 3165 3164 3163 3162 3161 3160 3159 3159 3157 3156 3155 3154 3153 3152 3151 3150 3149 3149 3147 3146 3146 3145 3145 3145 3143 3142 3142 3141 3141 3140 3139 3139 3139 3138
3185 3185 3185 3185 3185 3185 3184 3184 3184 3184 3184 3184 3183 3183 3183 3182 3182 3182 3182 3181 3181 3180 3180 3180 3179 3179 3178 3177 3177 3176 3176 3176 3175 3175 3175 3174 3174 3173 3173 3172 3172 3172 3171 3171 3170 3170 3169 3169 3168 3168 3167 3166 3165 3164 3163 3162 3161 3160 3159 3158 3157 3156 3155 3154 3153 3152 3151 3150 3149 3148 3147 3147 3145 3144 3143 3143 3143 3142 3141 3140 3140 3140 3139 3138 3137 3137 3137 3136
3184 3183 3184 3183 3183 3183 3183 3182 3182 3182 3182 3182 3181 3181 3181 3181 3180 3180 3180 3179 3179 3179 3178 3178 3177 3177 3176 3176 3175 3174 3174 3174 3174 3173 3173 3173 3172 3172 3171 3171 3170 3170 3169 3169 3168 3168 3167 3167 3167 3166 3165 3164 3163 3162 3161 3161 3159 3157 3157 3155 3154 3154 3153 3152 3151 3150 3149 3148 3147 3145 3144 3144 3143 3141 3139 3140 3141 3140 3139 3138 3138 3138 3137 3136 3135 3135 3135 3134
3182 3182 3182 3181 3181 3181 3181 3181 3180 3180 3180 3180 3179 3179 3179 3178 3178 3178 3177 3177 3177 3176 3176 3175 3175 3175 3174 3174 3172 3172 3173 3172 3172 3172 3171 3171 3170 3170 3169 3169 3168 3168 3167 3167 3166 3166 3166 3165 3164 3164 3163 3162 3161 3160 3159 3159 3157 3155 3154 3153 3152 3151 3150 3149 3148 3148 3146 3145 3144 3142 3141 3141 3141 3139 3137 3138 3139 3137 3137 3136 3135 3135 3134 3134 3133 3132 3132 3131
3180 3180 3180 3179 3179 3179 3179 3179 3178 3178 3178 3178 3177 3177 3176 3176 3176 3175 3175 3175 3174 3174 3174 3173 3173 3172 3172 3171 3170 3170 3171 3171 3170 3170 3169 3169 3168 3168 3167 3167 3166 3166 3165 3165 3164 3164 3164 3163 3163 3162 3161 3160 3159 3158 3157 3156 3155 3153 3152 3150 3150 3148 3147 3146 3146 3145 3144 3142 3142 3141 3138 3136 3137 3136 3135 3136 3136 3135 3134 3133 3133 3132 3132 3131 3130 3129 3129 3129
3178 3178 3177 3177 3177 3177 3177 3176 3176 3176 3176 3176 3175 3174 3174 3174 3173 3173 3173 3172 3172 3172 3171 3171 3170 3170 3169 3168 3168 3169 3169 3168 3168 3168 3168 3167 3166 3166 3165 3165 3164 3163 3163 3162 3162 3162 3162 3161 3161 3160 3159 3158 3157 3156 3154 3153 3152 3151 3150 3148 3146 3145 3143 3142 3143 3142 3141 3140 3139 3139 3135 3131 3132 3132 3133 3134 3132 3132 3131 3130 3130 3130 3129 3128 3127 3126 3125 3125
3175 3175 3175 3175 3174 3174 3174 3174 3174 3173 3173 3173 3173 3172 3171 3171 3171 3170 3170 3170 3169 3169 3169 3168 3168 3167 3166 3165 3166 3167 3166 3166 3166 3166 3166 3165 3164 3164 3163 3162 3162 3161 3161 3160 3160 3160 3160 3159 3159 3157 3157 3156 3155 3153 3151 3150 3150 3148 3147 3145 3144 3142 3139 3138 3139 3139 3138 3137 3137 3137 3132 3126 3127 3128 3130 3131 3130 3129 3128 3127 3127 3127 3126 3125 3124 3123 3122 3122
3173 3173 3173 3172 3172 3172 3172 3172 3171 3171 3171 3171 3170 3170 3169 3168 3168 3168 3167 3167 3167 3166 3166 3166 3165 3164 3163 3162 3164 3164 3164 3164 3164 3164 3163 3163 3162 3161 3161 3160 3160 3159 3159 3158 3158 3158 3157 3157 3156 3155 3154 3153 3152 3151 3149 3148 3146 3145 3144 3142 3140 3139 3136 3134 3135 3135 3135 3134 3134 3135 3129 3123 3125 3126 3125 3127 3128 3127 3125 3124 3124 3123 3122 3121 3120 3119 3118 3118
3170 3170 3170 3170 3170 3170 3169 3169 3168 3168 3168 3168 3168 3167 3166 3166 3165 3165 3165 3164 3164 3163 3163 3163 3162 3161 3159 3159 3161 3161 3161 3161 3161 3161 3161 3160 3159 3159 3158 3158 3157 3157 3157 3156 3156 3156 3155 3155 3154 3152 3151 3151 3150 3148 3147 3146 3143 3143 3141 3139 3138 3136 3134 3132 3132 3132 3132 3131 3132 3131 3125 3121 3123 3123 3121 3122 3124 3124 3122 3120 3120 3120 3118 3117 3117 3116 3114 3114
3167 3167 3167 3167 3167 3167 3167 3166 3165 3165 3165 3166 3166 3165 3164 3163 3163 3162 3162 3161 3161 3160 3160 3159 3159 3158 3156 3156 3158 3158 3158 3159 3159 3158 3158 3157 3156 3156 3155 3155 3155 3155 3154 3154 3154 3153 3153 3152 3151 3150 3149 3148 3148 3146 3146 3145 3142 3141 3138 3136 3136 3134 3133 3131 3128 3128 3129 3128 3128 3127 3122 3119 3120 3121 3118 3117 3118 3119 3118 3117 3117 3117 3115 3112 3112 3112 3111 3110
3164 3164 3164 3164 3164 3164 3164 3163 3163 3163 3163 3163 3163 3162 3161 3160 3160 3159 3159 3159 3158 3158 3157 3156 3156 3155 3153 3153 3154 3155 3155 3156 3155 3155 3155 3154 3153 3153 3153 3152 3152 3152 3151 3151 3151 3150 3150 3149 3148 3147 3146 3145 3144 3144 3144 3142 3140 3140 3137 3133 3133 3132 3131 3129 3126 3124 3125 3124 3124 3122 3118 3115 3117 3119 3117 3114 3113 3113 3113 3112 3113 3113 3112 3109 3107 3108 3107 3106
3161 3161 3161 3161 3161 3161 3161 3160 3160 3160 3160 3160 3160 3160 3159 3158 3157 3156 3155 3155 3155 3154 3154 3153 3153 3151 3150 3151 3152 3151 3152 3152 3151 3151 3151 3150 3150 3150 3149 3149 3149 3148 3148 3147 3147 3147 3147 3146 3145 3145 3143 3141 3140 3141 3141 3138 3138 3138 3137 3133 3131 3130 3128 3127 3124 3121 3121 3120 3119 3118 3114 3110 3112 3114 3114 3112 3110 3108 3107 3108 3108 3109 3108 3106 3103 3103 3102 3101
3157 3157 3158 3158 3158 3158 3157 3157 3157 3158 3157 3157 3157 3156 3156 3155 3154 3153 3152 3152 3151 3151 3150 3149 3149 3148 3148 3148 3149 3149 3149 3149 3148 3148 3148 3147 3147 3146 3146 3146 3145 3145 3144 3143 3143 3143 3144 3142 3142 3141 3138 3137 3137 3137 3135 3134 3135 3135 3134 3131 3128 3127 3124 3124 3123 3118 3118 3116 3114 3114 3110 3107 3106 3107 3109 3109 3108 3105 3102 3103 3104 3104 3103 3102 3100 3098 3098 3096
3153 3154 3154 3154 3155 3155 3154 3154 3154 3154 3154 3154 3154 3153 3153 3152 3150 3149 3148 3147 3147 3148 3148 3146 3144 3145 3145 3145 3146 3146 3146 3146 3145 3145 3145 3145 3144 3143 3143 3142 3142 3141 3140 3140 3139 3139 3139 3138 3137 3135 3134 3135 3135 3134 3132 3132 3132 3131 3129 3127 3125 3123 3119 3120 3119 3115 3114 3112 3109 3109 3106 3102 3101 3101 3103 3105 3104 3102 3100 3100 3099 3100 3099 3097 3096 3095 3094 3093
3150 3150 3150 3151 3151 3151 3150 3150 3151 3151 3151 3151 3151 3150 3149 3148 3147 3145 3143 3142 3143 3143 3143 3142 3141 3141 3142 3142 3143 3144 3143 3142 3141 3141 3141 3142 3141 3139 3138 3138 3138 3137 3137 3138 3136 3134 3135 3133 3131 3131 3132 3133 3133 3131 3130 3129 3128 3127 3125 3123 3122 3119 3116 3116 3115 3112 3111 3108 3105 3106 3102 3097 3096 3096 3098 3099 3099 3098 3099 3098 3096 3096 3096 3093 3093 3092 3090 3089
3146 3146 3147 3147 3147 3147 3147 3147 3147 3148 3147 3147 3147 3146 3145 3145 3143 3142 3139 3136 3135 3137 3138 3138 3137 3136 3138 3139 3139 3140 3139 3137 3136 3136 3139 3138 3137 3136 3134 3134 3134 3132 3133 3134 3131 3130 3129 3126 3127 3129 3130 3129 3128 3128 3128 3126 3125 3123 3121 3120 3118 3116 3114 3113 3111 3109 3108 3103 3101 3101 3096 3091 3091 3091 3092 3093 3092 3093 3095 3095 3094 3093 3093 3091 3089 3088 3087 3086
3142 3142 3143 3143 3144 3144 3143 3143 3143 3144 3144 3143 3143 3142 3142 3141 3140 3139 3137 3130 3127 3130 3132 3133 3133 3132 3134 3135 3136 3137 3134 3133 3132 3131 3135 3134 3131 3133 3130 3129 3130 3129 3129 3128 3127 3125 3122 3121 3124 3126 3126 3125 3124 3124 3124 3122 3121 3119 3118 3117 3114 3114 3113 3110 3108 3107 3104 3100 3098 3096 3089 3083 3084 3084 3085 3087 3086 3088 3090 3091 3092 3090 3089 3088 3087 3085 3083 3082
3138 3139 3139 3139 3140 3139 3139 3140 3140 3140 3140 3140 3139 3139 3138 3137 3136 3135 3133 3126 3119 3121 3126 3127 3127 3127 3130 3131 3132 3133 3129 3129 3128 3126 3130 3129 3127 3128 3126 3125 3126 3125 3123 3124 3123 3119 3117 3119 3121 3121 3121 3121 3121 3119 3120 3119 3116 3114 3114 3114 3111 3111 3112 3109 3106 3104 3101 3098 3094 3092 3083 3074 3076 3077 3076 3080 3081 3082 3085 3086 3087 3088 3086 3085 3084 3083 3081 3079
3135 3135 3135 3136 3136 3135 3136 3136 3136 3137 3136 3136 3136 3135 3135 3134 3133 3132 3130 3122 3111 3112 3119 3121 3121 3122 3125 3126 3126 3127 3125 3122 3122 3123 3124 3124 3123 3122 3121 3122 3121 3119 3119 3121 3119 3114 3113 3116 3116 3117 3118 3117 3116 3115 3116 3116 3111 3110 3110 3109 3109 3109 3109 3107 3104 3101 3100 3096 3091 3092 3083 3066 3066 3072 3069 3071 3075 3077 3080 3081 3081 3083 3083 3082 3081 3079 3078 3076
3131 3131 3131 3132 3132 3132 3132 3131 3132 3133 3132 3133 3133 3132 3132 3130 3130 3129 3127 3118 3104 3102 3110 3114 3116 3116 3117 3120 3121 3123 3120 3115 3117 3119 3118 3118 3119 3118 3117 3117 3116 3115 3116 3117 3115 3109 3108 3111 3112 3114 3113 3113 3112 3110 3112 3112 3108 3106 3105 3106 3107 3106 3105 3103 3102 3101 3098 3094 3089 3091 3090 3068 3055 3065 3067 3066 3070 3073 3075 3077 3077 3077 3078 3078 3077 3075 3074 3073
3126 3127 3128 3128 3128 3128 3127 3127 3129 3128 3129 3130 3129 3129 3128 3128 3128 3127 3126 3116 3099 3095 3102 3106 3109 3110 3110 3113 3115 3117 3114 3109 3112 3113 3113 3114 3114 3114 3113 3111 3112 3112 3112 3114 3110 3103 3104 3108 3109 3109 3109 3109 3108 3106 3108 3109 3106 3101 3100 3103 3104 3103 3102 3100 3100 3099 3094 3091 3085 3084 3094 3080 3052 3051 3062 3062 3066 3068 3069 3074 3074 3074 3074 3073 3073 3071 3070 3070
3122 3123 3123 3124 3124 3123 3123 3124 3124 3124 3125 3126 3126 3126 3125 3125 3126 3125 3127 3116 3095 3090 3097 3100 3102 3104 3106 3109 3109 3110 3108 3106 3109 3109 3110 3111 3110 3110 3108 3107 3108 3107 3108 3109 3103 3100 3102 3104 3105 3105 3105 3104 3103 3103 3104 3105 3102 3097 3098 3100 3100 3100 3098 3097 3096 3095 3092 3089 3080 3075 3088 3085 3052 3043 3056 3057 3059 3064 3064 3069 3071 3071 3070 3068 3070 3069 3067 3067
3119 3118 3119 3120 3120 3119 3119 3119 3119 3120 3121 3121 3122 3122 3121 3123 3123 3123 3126 3112 3090 3087 3094 3097 3099 3100 3103 3105 3105 3106 3105 3105 3105 3105 3107 3108 3106 3106 3104 3104 3105 3102 3102 3102 3098 3098 3100 3100 3101 3101 3101 3099 3099 3101 3101 3101 3098 3095 3096 3096 3097 3097 3095 3095 3093 3092 3094 3085 3073 3071 3080 3080 3052 3038 3050 3052 3053 3058 3060 3064 3066 3067 3067 3064 3065 3066 3065 3065
3114 3114 3115 3116 3116 3116 3115 3115 3115 3116 3116 3117 3117 3117 3118 3119 3119 3122 3117 3098 3086 3088 3091 3091 3095 3097 3099 3100 3101 3102 3102 3102 3102 3102 3103 3103 3102 3102 3100 3101 3102 3099 3099 3097 3094 3096 3096 3096 3096 3096 3097 3095 3095 3097 3097 3097 3095 3093 3094 3092 3094 3094 3091 3093 3090 3091 3093 3076 3063 3065 3072 3075 3055 3036 3043 3046 3047 3053 3054 3059 3062 3062 3063 3062 3061 3061 3061 3062
3110 3110 3111 3111 3112 3112 3111 3112 3112 3112 3112 3112 3112 3113 3114 3114 3116 3114 3098 3083 3086 3088 3086 3087 3090 3092 3094 3095 3096 3098 3098 3098 3098 3098 3098 3098 3098 3096 3095 3097 3098 3097 3095 3092 3091 3093 3092 3090 3091 3091 3092 3092 3092 3093 3092 3092 3092 3091 3091 3090 3092 3091 3088 3090 3088 3090 3089 3068 3057 3061 3064 3068 3053 3036 3040 3042 3043 3048 3049 3053 3058 3058 3059 3059 3058 3057 3057 3058
3105 3105 3105 3106 3108 3108 3108 3108 3108 3109 3109 3108 3109 3109 3109 3111 3107 3095 3082 3082 3088 3083 3081 3085 3085 3086 3089 3090 3090 3092 3092 3092 3093 3094 3094 3094 3092 3090 3091 3093 3094 3094 3091 3088 3087 3088 3086 3084 3087 3088 3088 3089 3089 3089 3088 3087 3088 3087 3087 3089 3091 3090 3087 3086 3084 3083 3078 3062 3057 3060 3061 3056 3040 3032 3041 3042 3041 3044 3045 3049 3053 3054 3055 3055 3053 3052 3052 3053
3101 3101 3100 3101 3103 3104 3104 3103 3104 3105 3104 3104 3105 3103 3106 3106 3090 3075 3077 3083 3083 3078 3078 3082 3082 3084 3085 3084 3084 3086 3087 3087 3088 3090 3090 3089 3087 3084 3085 3087 3089 3090 3088 3086 3085 3084 3081 3079 3082 3083 3083 3085 3085 3084 3084 3081 3082 3082 3081 3085 3087 3086 3086 3083 3077 3072 3065 3059 3057 3059 3059 3046 3029 3028 3036 3037 3038 3039 3040 3045 3047 3048 3051 3050 3049 3048 3047 3048
3097 3096 3094 3095 3097 3099 3100 3100 3100 3100 3099 3100 3100 3099 3102 3095 3074 3067 3074 3076 3076 3077 3077 3079 3080 3081 3081 3079 3079 3082 3084 3083 3084 3086 3085 3083 3081 3078 3079 3081 3084 3086 3085 3085 3083 3081 3080 3074 3073 3077 3079 3079 3079 3080 3081 3077 3077 3076 3076 3080 3080 3079 3081 3077 3071 3065 3059 3057 3055 3056 3052 3036 3024 3025 3027 3029 3033 3034 3036 3039 3041 3043 3045 3045 3044 3043 3044 3043
3091 3090 3089 3088 3089 3093 3096 3095 3095 3095 3094 3094 3094 3095 3092 3077 3064 3066 3069 3069 3073 3076 3075 3077 3078 3078 3076 3075 3075 3078 3081 3079 3079 3080 3079 3076 3075 3073 3073 3074 3079 3082 3082 3082 3079 3078 3077 3069 3066 3072 3074 3074 3075 3076 3077 3076 3074 3071 3073 3076 3073 3072 3075 3072 3067 3062 3061 3059 3050 3045 3039 3025 3021 3022 3021 3024 3027 3027 3031 3033 3036 3039 3039 3039 3039 3039 3040 3039
3084 3083 3083 3081 3081 3088 3091 3089 3089 3088 3087 3088 3088 3084 3073 3062 3061 3065 3065 3066 3069 3071 3073 3075 3074 3073 3072 3070 3071 3074 3077 3075 3074 3074 3073 3071 3069 3067 3067 3067 3072 3077 3076 3076 3076 3075 3072 3065 3063 3066 3067 3069 3071 3071 3073 3072 3069 3067 3068 3068 3066 3068 3071 3070 3067 3062 3064 3060 3042 3032 3028 3018 3017 3016 3011 3017 3021 3021 3026 3027 3030 3032 3032 3033 3033 3034 3035 3034
3079 3077 3076 3074 3075 3081 3083 3082 3083 3083 3081 3081 3078 3069 3059 3055 3060 3063 3062 3064 3065 3066 3071 3071 3068 3067 3066 3065 3064 3067 3071 3071 3068 3068 3067 3065 3061 3058 3060 3062 3065 3070 3071 3073 3073 3071 3069 3063 3060 3061 3062 3064 3066 3067 3067 3065 3064 3063 3063 3062 3062 3066 3067 3068 3068 3063 3062 3058 3037 3025 3023 3016 3014 3010 3004 3009 3013 3015 3019 3021 3023 3025 3025 3027 3027 3029 3030 3029
3075 3072 3069 3068 3069 3073 3076 3076 3075 3076 3075 3074 3068 3058 3051 3051 3055 3059 3059 3060 3062 3064 3066 3064 3062 3061 3061 3061 3059 3060 3065 3065 3062 3062 3062 3059 3053 3049 3054 3058 3059 3063 3068 3070 3069 3067 3066 3062 3058 3057 3057 3059 3062 3062 3059 3056 3059 3060 3058 3059 3059 3061 3062 3063 3065 3062 3059 3055 3036 3022 3018 3010 3005 3005 3003 3004 3007 3009 3013 3015 3017 3019 3020 3021 3022 3023 3024 3023
3070 3067 3061 3061 3063 3066 3071 3069 3067 3067 3066 3063 3056 3048 3044 3046 3050 3055 3055 3056 3060 3061 3059 3058 3059 3058 3056 3057 3057 3056 3058 3057 3057 3058 3055 3052 3047 3043 3047 3053 3055 3058 3063 3065 3064 3062 3062 3060 3055 3051 3052 3056 3056 3053 3050 3050 3054 3055 3054 3055 3054 3055 3056 3055 3056 3054 3051 3048 3038 3027 3015 2995 2991 2999 3002 3000 3003 3006 3008 3009 3011 3014 3014 3015 3016 3018 3019 3018
3065 3060 3054 3057 3059 3060 3065 3062 3058 3057 3054 3051 3047 3041 3041 3043 3045 3050 3051 3052 3056 3056 3053 3053 3055 3054 3052 3052 3053 3053 3052 3051 3051 3052 3049 3046 3044 3041 3042 3047 3051 3054 3057 3059 3059 3057 3058 3056 3051 3048 3050 3050 3046 3042 3044 3045 3048 3049 3048 3049 3048 3050 3052 3051 3048 3045 3044 3043 3039 3035 3015 2984 2981 2995 2998 2997 3000 3003 3005 3006 3006 3008 3009 3010 3011 3012 3013 3012
3059 3053 3049 3053 3054 3055 3059 3054 3047 3046 3044 3043 3042 3038 3039 3040 3041 3045 3047 3048 3050 3050 3050 3050 3049 3049 3048 3047 3048 3048 3048 3046 3045 3046 3043 3040 3040 3039 3038 3041 3046 3050 3052 3053 3052 3052 3051 3049 3047 3046 3043 3039 3035 3036 3040 3040 3040 3040 3040 3041 3041 3042 3046 3047 3042 3037 3038 3037 3032 3032 3015 2984 2978 2991 2994 2996 2999 2998 3001 3001 3002 3005 3005 3005 3006 3006 3007 3006
3052 3046 3044 3048 3049 3050 3053 3045 3039 3040 3037 3037 3038 3036 3037 3038 3038 3040 3041 3043 3044 3044 3045 3044 3043 3043 3042 3043 3044 3044 3044 3041 3039 3039 3036 3034 3035 3035 3036 3038 3041 3043 3046 3046 3045 3046 3046 3044 3042 3039 3035 3033 3033 3034 3034 3032 3033 3033 3033 3034 3035 3035 3036 3036 3033 3030 3032 3030 3025 3025 3012 2984 2977 2988 2991 2993 2996 2996 2996 2994 2997 3001 3000 2999 3000 2999 2999 2999
3043 3041 3040 3041 3042 3046 3046 3039 3036 3035 3030 3032 3035 3034 3035 3036 3034 3035 3035 3036 3037 3038 3039 3037 3037 3038 3037 3038 3039 3039 3039 3036 3032 3032 3030 3029 3030 3031 3033 3035 3036 3038 3040 3039 3039 3041 3041 3038 3036 3033 3030 3031 3031 3028 3026 3024 3026 3026 3025 3027 3027 3026 3027 3027 3027 3027 3026 3023 3018 3014 3004 2984 2976 2984 2990 2990 2992 2994 2992 2989 2991 2994 2993 2993 2993 2991 2992 2992
3036 3035 3034 3034 3035 3038 3037 3033 3032 3029 3027 3030 3031 3030 3031 3030 3029 3030 3030 3030 3031 3032 3032 3031 3032 3032 3031 3033 3032 3031 3033 3029 3025 3026 3027 3026 3024 3026 3030 3030 3030 3032 3032 3031 3032 3034 3033 3031 3031 3031 3030 3029 3026 3022 3017 3015 3016 3016 3016 3019 3019 3020 3023 3023 3023 3024 3019 3012 3008 3003 2994 2982 2977 2982 2987 2988 2988 2988 2987 2986 2986 2986 2986 2987 2986 2984 2985 2984
3031 3028 3026 3027 3026 3024 3022 3023 3026 3024 3024 3026 3024 3024 3026 3024 3024 3026 3025 3025 3026 3026 3026 3025 3025 3026 3026 3027 3025 3024 3025 3024 3021 3021 3023 3022 3020 3021 3023 3023 3024 3025 3025 3027 3028 3027 3026 3024 3024 3025 3024 3022 3016 3009 3006 3006 3007 3008 3009 3011 3012 3013 3016 3015 3017 3017 3006 2995 2997 2996 2986 2976 2978 2983 2983 2984 2985 2984 2984 2983 2981 2980 2980 2980 2979 2977 2977 2977
3025 3022 3020 3021 3020 3015 3011 3014 3016 3014 3016 3019 3016 3017 3020 3017 3018 3021 3021 3019 3019 3020 3020 3018 3019 3021 3020 3021 3020 3017 3018 3019 3017 3016 3017 3017 3016 3016 3016 3016 3018 3019 3019 3022 3022 3020 3018 3016 3015 3014 3011 3009 3005 3000 3002 3006 3004 3001 3002 3003 3005 3006 3007 3009 3010 3002 2990 2985 2989 2990 2981 2973 2978 2984 2978 2976 2980 2981 2982 2981 2977 2976 2975 2974 2973 2971 2969 2969
3019 3015 3015 3016 3014 3010 3007 3007 3007 3004 3007 3010 3007 3007 3011 3010 3011 3014 3013 3012 3013 3014 3014 3012 3013 3014 3014 3015 3014 3011 3011 3012 3011 3011 3011 3010 3010 3010 3011 3011 3012 3013 3014 3016 3016 3014 3010 3006 3007 3006 3002 3002 3002 3001 3004 3005 3000 2998 2998 2998 2999 3000 3001 3002 2994 2983 2984 2986 2981 2979 2978 2972 2974 2979 2975 2971 2972 2974 2975 2976 2973 2972 2970 2969 2968 2966 2964 2963
3012 3009 3009 3011 3008 3004 3002 3001 3000 2999 2999 3001 2999 2999 3002 3003 3003 3004 3004 3005 3006 3008 3008 3005 3005 3007 3008 3010 3009 3004 3005 3006 3004 3005 3004 3002 3002 3003 3003 3004 3005 3006 3008 3009 3009 3009 3004 2999 3001 3001 2997 2998 3001 3001 3001 2999 2994 2994 2996 2994 2994 2994 2993 2988 2978 2975 2985 2983 2971 2971 2974 2969 2969 2975 2973 2968 2966 2966 2967 2968 2966 2965 2965 2965 2963 2961 2960 2959
3005 3003 3005 3006 3001 2997 2997 2997 2997 2994 2992 2994 2993 2991 2994 2995 2994 2995 2999 3000 2997 2998 3000 2998 2997 3001 3001 3003 3002 2998 2998 3000 2997 2997 2996 2995 2996 2997 2996 2996 2997 2998 3000 3000 3002 3003 2999 2995 2996 2997 2992 2992 2995 2995 2994 2992 2988 2988 2990 2990 2991 2989 2983 2976 2971 2975 2981 2973 2964 2968 2968 2964 2967 2969 2965 2963 2962 2961 2961 2960 2959 2959 2958 2959 2959 2956 2954 2953
2998 2997 2998 2997 2993 2991 2992 2992 2993 2989 2986 2987 2984 2982 2987 2987 2985 2988 2991 2991 2988 2988 2991 2989 2990 2994 2994 2995 2995 2991 2991 2994 2991 2990 2992 2989 2989 2991 2990 2989 2991 2991 2992 2993 2994 2994 2992 2989 2991 2992 2988 2984 2986 2986 2985 2984 2983 2982 2983 2986 2987 2982 2973 2971 2971 2972 2970 2963 2959 2964 2963 2960 2961 2959 2956 2957 2957 2955 2955 2954 2952 2952 2952 2953 2952 2950 2948 2946
2989 2989 2990 2988 2984 2985 2987 2986 2988 2985 2981 2981 2978 2977 2979 2977 2978 2982 2981 2980 2982 2983 2984 2983 2983 2987 2988 2987 2986 2983 2985 2988 2985 2985 2988 2986 2983 2983 2983 2982 2985 2985 2985 2986 2986 2986 2985 2983 2985 2988 2981 2975 2977 2977 2974 2976 2977 2977 2979 2979 2974 2967 2965 2967 2967 2964 2962 2958 2957 2960 2957 2952 2952 2951 2951 2951 2948 2946 2946 2947 2947 2946 2946 2946 2945 2943 2941 2939
2980 2980 2983 2981 2975 2976 2980 2980 2981 2979 2975 2976 2976 2975 2974 2972 2976 2979 2973 2971 2976 2977 2978 2979 2979 2980 2979 2977 2977 2978 2980 2981 2980 2980 2982 2981 2978 2976 2975 2976 2977 2977 2978 2980 2979 2978 2978 2976 2978 2980 2972 2966 2969 2969 2968 2972 2972 2968 2967 2964 2958 2957 2961 2961 2958 2955 2956 2956 2954 2950 2945 2943 2946 2947 2945 2942 2939 2937 2939 2941 2942 2940 2939 2939 2938 2935 2933 2932